Regional Weather Roundup
Issued by NWS

Home | Current Version | Previous Version | Graphics & Text | Print | Product List | Glossary On
Versions: 1 2 3 4 5 6 7 8 9 10 11 12 13 14 15 16 17 18 19 20 21 22 23 24 25 26 27 28 29 30 31 32 33 34 35 36 37 38 39 40 41 42 43 44 45 46 47 48 49 50
634
ASUS45 KCYS 081010
RWRWY

WYOMING REGIONAL WEATHER ROUNDUP
NATIONAL WEATHER SERVICE CHEYENNE WY
300 AM MST MON FEB 08 2016

NOTE:  "FAIR" INDICATES FEW OR NO CLOUDS BELOW 12,000 FEET
WITH NO SIGNIFICANT WEATHER AND/OR OBSTRUCTIONS TO VISIBILITY.

WYZ001-081100-
YELLOWSTONE NATIONAL PARK

CITY           SKY/WX    TMP DP  RH WIND       PRES   REMARKS
LK YELLOWSTONE   N/A     20  15  81 CALM      30.57R
W YELLOWSTONE  NOT AVBL

$$
WYZ002>013-054>058-071-098>099-081100-
NORTHERN WYOMING

CITY           SKY/WX    TMP DP  RH WIND       PRES   REMARKS
JACKSON        FAIR       9   7  92 N5        30.57S WCI   0
CODY           FAIR      21  12  68 CALM      30.39F
GREYBULL       FAIR      25  18  74 CALM      30.44R
WORLAND        FAIR      23  18  81 SW3       30.42F
SHERIDAN       CLOUDY    28  14  55 W6        30.39S WCI  22
BUFFALO        FAIR      27  10  49 CALM      30.37S
GILLETTE       FAIR      20   9  62 W13       30.37R WCI   7
HULETT         FAIR      27  10  50 CALM      30.36R
NEWCASTLE      FAIR      21   9  58 NW16      30.32S WCI   7

$$
WYZ014>020-022>026-101>103-081100-
CENTRAL WYOMING

CITY           SKY/WX    TMP DP  RH WIND       PRES   REMARKS
BIG PINEY      FAIR      25  15  66 N17       30.49R WCI  12
PINEDALE       FAIR      28  19  69 W26G32    30.45F WCI  13
DUBOIS         FAIR      32  21  64 W32G46    30.42F WCI  17
LANDER         FAIR      18  10  71 CALM      30.41R
RIVERTON       FAIR      15   9  76 N3        30.43R
CASPER         CLOUDY    26  14  60 SW16      30.37F WCI  14
DOUGLAS        FAIR      19  10  68 NW12        N/A  WCI   7

$$
WYZ021-027>030-104>119-081100-
SOUTHERN WYOMING

CITY           SKY/WX    TMP DP  RH WIND       PRES   REMARKS
EVANSTON       FAIR      22  14  71 S10       30.59F WCI  11
FORT BRIDGER   SUNNY     30  18  59 W23       30.58S WCI  17
ROCK SPRINGS   FAIR      25  16  68 SW24      30.48F WCI   9
DIXON          FAIR      14  10  82 CALM      30.54S
RAWLINS        CLOUDY    24  16  71 W16G22    30.44R WCI  11
SARATOGA       CLOUDY    30  19  64 W17       30.44F WCI  18
LARAMIE          N/A     31  17  56 NW14      30.34S WCI  21
CHEYENNE       CLOUDY    24  15  68 N5        30.30F WCI  18
TORRINGTON     CLOUDY    23  11  60 NW8       30.36F WCI  14
PINE BLUFFS    CLOUDY    23  14  68 NW5       30.35F WCI  17

$$




USA.gov is the U.S. government's official web portal to all federal, state and local government web resources and services.